Regional Weather Roundup
Issued by NWS

Home | Current Version | Previous Version | Text Only | Print | Product List | Glossary On
Versions: 1 2 3 4 5 6 7 8 9 10 11 12 13 14 15 16 17 18 19 20 21 22 23 24 25 26 27 28 29 30 31 32 33 34 35 36 37 38 39 40 41 42 43 44 45 46 47 48 49 50
000
ASUS45 KREV 250810
RWRNV
NEVADA REGIONAL WEATHER ROUNDUP
NATIONAL WEATHER SERVICE RENO NV
100 AM PDT MON SEP 25 2017

NOTE: "FAIR" INDICATES FEW OR NO CLOUDS BELOW 12,000 FEET WITH NO
SIGNIFICANT WEATHER AND/OR OBSTRUCTIONS TO VISIBILITY.

NVZ001-003-004-250900-
WESTERN NEVADA

CITY           SKY/WX    TMP DP  RH WIND       PRES   REMARKS
RENO           CLEAR     46  28  49 W5        30.13S
CARSON CITY    FAIR      41  25  52 CALM      30.14S
MINDEN         FAIR      32  19  59 SE8       30.14S
SLIDE MTN        N/A     32  25  74 NE22        N/A
FALLON         CLEAR     45  29  53 SW3       30.11S
LOVELOCK       CLEAR     37  26  64 CALM      30.11S
HAWTHORNE      CLEAR     46  30  53 S5        30.11F
$$

NVZ002-CAZ072-073-250900-
NORTHERN AND CENTRAL SIERRA

CITY           SKY/WX    TMP DP  RH WIND       PRES   REMARKS
S. LAKE TAHOE  CLEAR     32  27  81 CALM      30.15S
TRUCKEE        CLEAR     30  27  86 CALM      30.16F
SQUAW VLY 8000   N/A     37  27  65 SE6         N/A
SUSANVILLE     CLEAR     43  28  56 W8        30.12F
BLUE CANYON    CLEAR     52  23  32 E8G17     30.09F
MAMMOTH LAKES  FAIR      34  22  61 W9        30.20S
BRIDGEPORT     FAIR      29  22  75 CALM      30.18S
$$

NVZ030-031-036-250900-
NORTHERN NEVADA

CITY           SKY/WX    TMP DP  RH WIND       PRES   REMARKS
ELKO           CLEAR     33  29  85 CALM      30.12S
WINNEMUCCA     CLEAR     33  26  75 SE5       30.12S
WENDOVER       CLEAR     43  34  70 W3        30.11R
$$

NVZ035-037-250900-
CENTRAL NEVADA

CITY           SKY/WX    TMP DP  RH WIND       PRES   REMARKS
ELY            CLEAR     29  26  89 S9        30.15F
EUREKA           N/A     31  25  78 S6        30.14F
$$

NVZ013-014-250900-
SOUTH CENTRAL NEVADA

CITY           SKY/WX    TMP DP  RH WIND       PRES   REMARKS
TONOPAH        CLEAR     43  40  89 N12       30.13S
$$

NVZ017-020-022-250900-
SOUTHERN NEVADA

CITY           SKY/WX    TMP DP  RH WIND       PRES   REMARKS
LAS VEGAS      CLEAR     64  27  24 NW7       29.97S
N. LAS VEGAS   CLEAR     60  22  23 NW6       29.98R
NELLIS AFB     CLEAR     64  25  23 N9        29.96S
HENDERSON      CLEAR     54  29  38 S5        30.00S
MERCURY        CLEAR     57  23  26 NE12      30.03R
$$



USA.gov is the U.S. government's official web portal to all federal, state and local government web resources and services.